www.pogodaiklimat.ru

Погода и климат >> Архив погоды >> Россия >> Алтай >> Кызыл-Озек


АРХИВ ПОГОДЫ в Кызыл-Озеке

Время (UTC), дата Ветер
(напр.,м/с)
 
Видим.   Явления Облачность Т
(С)
Тd
(С)
f
(%)
Тe
(С)
Тes
(С)
Комфортность P
(гПа)
Po
(гПа)
Тmin
(С)
Tmax
(С)
R
(мм)
R24
(мм)
S
(см)
12 14.03 В 2 50 км 10/3 1000 м
[Sc Ac trans Ci fib]
+4.7 -5.0 49 +3 +3 1027.5 987.6 +9.8
15 14.03 ЮВ 1 50 км ясно -0.7 -5.5 70 -2 -2 1027.5 986.8
18 14.03 Ю 1 50 км ясно -2.0 -6.5 71 -4 -4 1025.6 984.7
21 14.03 ЮВ 1 50 км ясно -2.9 -7.2 72 -5 -5 1023.9 983.0
00 15.03 ЮВ 1 50 км ясно -4.6 -8.0 77 -7 -7 1023.9 982.7 -5.0 25
03 15.03 В 1 50 км ясно +0.2 -6.8 59 -1 +3 1022.0 981.6 -5.7
06 15.03 штиль 0 50 км ясно +14.8 -11.3 15 +15 +26 опасность
простуды
1017.4 979.2
09 15.03 СЗ 3 50 км ясно +13.3 -5.6 26 +13 +17 1015.5 977.1
12 15.03 СВ 1 50 км ясно +7.6 -4.5 42 +7 +7 1016.5 977.4 +16.5
15 15.03 ЮВ 1 50 км ясно -0.7 -4.9 73 -3 -3 1018.6 978.2
18 15.03 ЮВ 2 50 км ясно -2.2 -6.7 71 -6 -6 1018.3 977.7
21 15.03 ЮВ 1 50 км ясно -2.6 -7.7 68 -4 -4 1017.6 977.0
00 16.03 Ю 1 50 км 10/4 1000 м
[Sc Ac trans Ci fib]
-2.8 -8.1 67 -5 -5 1016.6 976.0 -2.8 24
06 16.03 СЗ 2 50 км 10/10 1000 м
[Sc]
+2.7 -2.1 71 -0 -0 1018.0 978.2
12 16.03 штиль 0 2000 м слаб. ливневой снег 10/10 1000 м
[Cb cap]
-0.5 -3.3 81 -2 -2 1021.1 980.7 +6.0 2
18 16.03 СЗ 1 50 км {ливн. осадки} 10/10 1000 м
[Sc diur, vesp]
-3.1 -8.1 68 -5 -5 1023.3 982.4
00 17.03 С 1 50 км 10/10 1000 м
[Sc diur, vesp]
-4.0 -7.3 78 -6 -6 1022.6 981.6 -4.0 0.3 24
03 17.03 СЗ 2 20 км слаб. ливневой снег 10/10 600 м
[Cb cap]
-3.7 -7.1 77 -8 -8 1022.7 981.7 -4.1
06 17.03 С 2 20 км слаб. ливневой снег 10/10 600 м
[Cb cap]
-2.4 -7.4 68 -6 -6 1022.4 981.6
09 17.03 С 3 2000 м слаб. ливневой снег 10/10 600 м
[Cb cap]
-4.6 -9.0 71 -10 -10 1023.6 982.5
12 17.03 С 1 2000 м слаб. ливневой снег 10/10 600 м
[Cb cap]
-6.2 -9.2 79 -8 -8 1026.0 984.5 -2.3 1
00 18.03 Ю 1 2000 м слаб. ливневой снег 10/10 600 м
[Cb cap]
-10.4 -12.7 83 -13 -13 1031.8 989.4 -10.6 0.8 26
12 18.03 СЗ 1 50 км 1/0
[Ac trans]
-5.5 -11.1 65 -8 -8 1035.0 993.3 -3.7 0.2
00 19.03 Ю 2 50 км 4/0
[Ci fib]
-17.1 -20.1 77 -22 -22 1035.5 991.9 -17.1 24
12 19.03 С 2 50 км 10/4 1000 м
[Sc Ac cast]
-3.1 -10.6 56 -7 -7 1030.8 989.6 -0.8
00 20.03 ЮВ 1 50 км ясно -12.8 -15.2 82 -15 -15 1035.8 992.9 -12.8 23
12 20.03 СЗ 1 50 км ясно -1.4 -9.4 54 -3 -3 1033.1 992.1 +0.3
00 21.03 Ю 1 50 км ясно -12.7 -15.2 82 -15 -15 1034.3 991.4 -12.9 23

 

Местоположение метеостанции Кызыл-Озек (Алтай, Россия): широта 51.90 долгота 86.00 высота над уровнем моря 326 м.

В архиве по умолчанию представлена погода в Кызыл-Озеке за последнюю неделю. Архивные данные за месяц целиком и за предыдущие месяцы, начиная с января 2011 года, Вы можете получить, выбрав интересующий диапазон дат из раскрывающегося списка и нажав кнопку "Ввод!".


*Определитесь, кто Вы:
робот инопланетянин человек

Внимание! Время в таблицах - всемирное. Для получения местного времени необходимо прибавить поправку, которая равна 7 ч.

Смотрите также архив погоды в соседних городах и на ближайших метеорологических станциях:

Погода в Горно-Алтайске (Алтай, Россия) (14 км)
Погода в Чое (Алтай, Россия) (38 км)
Погода в Чемале (Алтай, Россия) (58 км)
Погода в Шебалино (Алтай, Россия) (70 км)
Погода в Белокурихе (Алтайский край, Россия) (71 км)
Погода в Турочаке (Алтай, Россия) (87 км)
Погода в Бийске АМС (Алтайский край, Россия) (90 км)
Погода в Яйлю (Алтай, Россия) (111 км)
Погода в Бийске (Алтайский край, Россия) (113 км)
Погода в Солонешном (Алтайский край, Россия) (119 км)

Пояснения к столбцам:

Ветер - указаны скорость ветра в м/с - средняя за 10 мин, порывы в срок и между сроками (в фигурных скобках) и направление, откуда дует ветер: С - северный, СВ - северо-восточный, В - восточный, ЮВ - юго-восточный, Ю - южный, ЮЗ - юго-западный, З - западный, СЗ - северо-западный.
Видимость - горизонтальная дальность видимости в метрах или километрах. При видимости от 1 до 10 км при отсутствии осадков обычно наблюдается дымка, при ухудшении видимости до 1 км и менее - туман. В сухую погоду видимость может ухудшаться дымом, пылью или мглою.
Явления - указаны атмосферные явления, наблюдавшиеся в срок или в последний час перед сроком; фигурными скобками обозначены явления, наблюдавшиеся между сроками (за 1-3 часа до срока); квадратными скобками обозначены град или гололедные отложения с указанием их диаметра в мм.
Облачность - указаны через наклонную черту общая и нижняя облачность в баллах и высота нижней границы облаков в метрах; квадратными скобками обозначены формы облаков: Ci - перистые, Cs - перисто-слоистые, Cc - перисто-кучевые, Ac - высококучевые, As - высокослоистые, Sc - слоисто-кучевые, Ns - слоисто-дождевые, Cu - кучевые, Cb - кучево-дождевые. Подробнее классификацию облаков см. в Атласе облаков (PDF).
T - Температура воздуха - температура, измеренная на высоте 2 м над землей.
Td - Температура точки росы - температура, при понижении до которой содержащийся в воздухе водяной пар достигнет насыщения.
f - Относительная влажность воздуха - влажноcть воздуха, измеренная на высоте 2 м над землей.
Te - Эффективная температура - температура, которую ощущает одетый по сезону человек в тени. Характеристика душности погоды. При расчете учитывается влияние влажности воздуха и скорости ветра на теплоощущения человека.
Tes - Эффективная температура на солнце - температура, которую ощущает человек, с поправкой на солнечный нагрев. Характеристика знойности погоды. Зависит от высоты солнца над горизонтом, облачности и скорости ветра. Ночью, в пасмурную погоду, а также при ветре 12 м/с и более поправка равна нулю.
P - Атмосферное давление - приведенное к уровню моря атмосферное давление.
Po - Атмосферное давление - измеренное на уровне метеостанции атмосферное давление.
Tmin - Минимальная температура - минимум температуры воздуха на высоте 2 м над землей.
Tmax - Максимальная температура - максимум температуры воздуха на высоте 2 м над землей.
R - Количество осадков - Количество выпавших осадков за период времени, мм. При наведении курсора мыши на число - период времени, за который выпало указанное количество осадков.
R24 - Количество осадков - Количество выпавших осадков за 24 часа, мм.
S - Снежный покров - Высота снежного покрова, см. При наведении курсора мыши на число - состояние снежного покрова и степень покрытия местности в баллах.